Salamonie, Indiana
Current Conditions -  °F | °C
As of 8:15 AM on Thursday 23 Oct 2014 (Local Time) from KHHG Reporting Station
Moderate Fog Moderate Fog  
Wind Chill: 31°   Ceiling: 200
Heat Index: 31°   Visibility: 0mi
Dew Point: 31°   Wind: 0mph
Humidity: 100%   Direction: NA
Pressure: 30.25"   Gusts: NA
Location:  40.6897°N, 85.3916°W
Report Text: KHHG 231215Z AUTO 00000KT M1/4SM FZFG OVC002 M01/M01 A3025 RMK AO2 T10061006
Loading
Personal Weather Stations






























Interactive Weather Map
Tropical Storm Tracking
New forecast layout! Learn more

10-Day Weather Forecast

Advertisements
Track Severe Weather on mobile